This is the latest recevied weather packets stored in our database for station/object K3HW. If no packets are shown the sender has not sent any weather packets the latest 10 day(s).
| Time | Temp. | Humidity | Pressure | Rain* | Wind** | Luminosity | Snow |
|---|---|---|---|---|---|---|---|
| 1778073555 | 18.89° C | 69% | 1012.8 hPa | 0 mm | - | 51 W/m² | - |
| 1778073251 | 18.89° C | 70% | 1012.8 hPa | 0 mm | - | 48 W/m² | - |
| 1778072948 | 18.89° C | 70% | 1012.8 hPa | 0 mm | - | 39 W/m² | - |
| 1778072644 | 18.89° C | 69% | 1012.8 hPa | 0 mm | - | 42 W/m² | - |
| 1778072343 | 18.89° C | 68% | 1013.1 hPa | 0 mm | - | 44 W/m² | - |
| 1778072041 | 18.89° C | 69% | 1013.1 hPa | 0 mm | - | 40 W/m² | - |
| 1778071739 | 19.44° C | 68% | 1013 hPa | 0 mm | - | 23 W/m² | - |
| 1778071435 | 19.44° C | 68% | 1012.9 hPa | 0 mm | - | 37 W/m² | - |
| 1778071133 | 19.44° C | 68% | 1013.1 hPa | 0 mm | - | 49 W/m² | - |
| 1778070831 | 18.89° C | 68% | 1012.9 hPa | 0 mm | - | 73 W/m² | - |
| 1778070528 | 18.89° C | 69% | 1012.9 hPa | 0 mm | - | 41 W/m² | - |
| 1778070225 | 18.89° C | 69% | 1012.9 hPa | 0 mm | - | 21 W/m² | - |
| 1778069923 | 18.89° C | 69% | 1012.9 hPa | 0 mm | - | 25 W/m² | - |
| 1778069620 | 18.89° C | 69% | 1012.8 hPa | 0 mm | - | 29 W/m² | - |
| 1778069317 | 18.89° C | 69% | 1012.8 hPa | 0 mm | - | 37 W/m² | - |
| 1778069015 | 18.89° C | 70% | 1012.9 hPa | 0 mm | - | 50 W/m² | - |
| 1778068712 | 18.89° C | 71% | 1012.7 hPa | 0 mm | - | 39 W/m² | - |
| 1778068410 | 18.89° C | 70% | 1012.8 hPa | 0 mm | - | 33 W/m² | - |
| 1778068108 | 18.33° C | 71% | 1012.7 hPa | 0 mm | - | 54 W/m² | - |
| 1778067805 | 18.33° C | 71% | 1012.7 hPa | 0 mm | - | 21 W/m² | - |
| 1778067504 | 18.33° C | 71% | 1012.6 hPa | 0 mm | - | 24 W/m² | - |
| 1778067201 | 18.33° C | 71% | 1012.7 hPa | 0 mm | - | 21 W/m² | - |
| 1778066897 | 18.33° C | 71% | 1012.5 hPa | 0 mm | - | 23 W/m² | - |
| 1778066595 | 18.33° C | 71% | 1012.7 hPa | 0 mm | - | 24 W/m² | - |
| 1778066292 | 18.33° C | 72% | 1012.9 hPa | 0 mm | - | 25 W/m² | - |
* Rain latest hour (hover to see other rain measurements)
** Current wind speed in m/s (hover to see current wind gust speed)